Syracuse, NY

12:02 AM EST on December 10, 2019 (GMT -0500)
Syracuse Hancock International

Weather History for KSYR - June, 2019

Change the Weather History Date:

Monday, June 3, 2019

  Actual Average Record
Temperature  
Mean Temperature 53 °F 63 °F  
Max Temperature 61 °F 74 °F 93 °F (1934)
Min Temperature 44 °F 52 °F 36 °F (1965)
Degree Days  
Heating Degree Days 12 4  
Month to date heating degree days 17 12  
Since 1 June heating degree days 17 12  
Since 1 July heating degree days 6741 6602  
Cooling Degree Days 0 2  
Month to date cooling degree days 1 6  
Year to date cooling degree days 14 36  
Since 1 June cooling degree days 1 6  
Growing Degree Days 2 (Base 50)    
Moisture  
Dew Point 35 °F    
Average Humidity 53    
Maximum Humidity 70    
Minimum Humidity 35    
Precipitation  
Precipitation 0.00 in 0.11 in 1.36 in (2006)
Month to date precipitation 0.36 0.32  
Year to date precipitation 18.01 14.25  
Snow  
Snow 0.00 in 0.00 in 0.00 in (2002)
Month to date snowfall 0.0 0.0  
Since 1 June snowfall 0.0 0.0  
Since 1 July snowfall 115.0 123.8  
Snow Depth 0.00 in    
Sea Level Pressure  
Sea Level Pressure 29.93 in    
Wind  
Wind Speed 14 mph (West)    
Max Wind Speed 29 mph    
Max Gust Speed 36 mph    
Visibility 10 miles    
Events      
T = Trace of Precipitation, MM = Missing Value Source: NWS Daily Summary

Daily Weather History Graph

Daily Weather History Graph

Search for Another Location

Airport or City:

Astronomy

Jun. 03, 2019 Rise Set
Actual Time 5:26 AM EDT 8:38 PM EDT
Civil Twilight 4:52 AM EDT 9:13 PM EDT
Nautical Twilight 4:07 AM EDT 9:58 PM EDT
Astronomical Twilight 3:13 AM EDT 10:52 PM EDT
Moon 5:47 AM EDT (6/3) 9:00 PM EDT (6/3)
Length of Visible Light 16h 21m
Length of Day
15h 11m
New Moon, 0% of the Moon is Illuminated
Jun 3
New Moon
Jun 10
First Quarter
Jun 17
Full
Jun 25
Last Quarter
Jul 2
New

Hourly Weather History & Observations

Time (EDT) Temp. Windchill Dew Point Humidity Pressure Visibility Wind Dir Wind Speed Gust Speed Precip Events Conditions
12:54 AM 52.0 °F - 33.1 °F 49% 29.81 in 10.0 mi WNW 11.5 mph - N/A   Partly Cloudy
1:54 AM 48.0 °F - 34.0 °F 58% 29.81 in 10.0 mi WSW 8.1 mph - N/A   Partly Cloudy
2:54 AM 48.9 °F - 35.1 °F 59% 29.81 in 10.0 mi WSW 10.4 mph - N/A   Clear
3:54 AM 46.0 °F 42.5 °F 35.1 °F 66% 29.80 in 10.0 mi WSW 6.9 mph - N/A   Clear
4:54 AM 45.0 °F 41.2 °F 35.1 °F 68% 29.79 in 10.0 mi WSW 6.9 mph - N/A   Partly Cloudy
5:54 AM 44.1 °F 40.1 °F 34.0 °F 68% 29.81 in 10.0 mi WSW 6.9 mph - N/A   Partly Cloudy
6:54 AM 48.9 °F - 33.1 °F 54% 29.84 in 10.0 mi West 16.1 mph - N/A   Partly Cloudy
7:54 AM 50.0 °F - 35.1 °F 57% 29.88 in 10.0 mi West 17.3 mph 27.6 mph N/A   Scattered Clouds
8:54 AM 53.1 °F - 37.0 °F 55% 29.89 in 10.0 mi West 16.1 mph 24.2 mph N/A   Scattered Clouds
9:54 AM 55.0 °F - 37.9 °F 53% 29.90 in 10.0 mi West 16.1 mph 27.6 mph N/A   Mostly Cloudy
10:54 AM 55.0 °F - 37.9 °F 53% 29.93 in 10.0 mi West 17.3 mph 27.6 mph N/A   Mostly Cloudy
11:54 AM 55.0 °F - 36.0 °F 49% 29.95 in 10.0 mi WNW 21.9 mph 32.2 mph N/A   Mostly Cloudy
12:54 PM 57.0 °F - 37.0 °F 47% 29.97 in 10.0 mi West 21.9 mph 32.2 mph N/A   Mostly Cloudy
1:54 PM 59.0 °F - 37.0 °F 44% 29.97 in 10.0 mi WNW 21.9 mph 32.2 mph N/A   Mostly Cloudy
2:54 PM 57.9 °F - 33.1 °F 39% 29.98 in 10.0 mi West 20.7 mph 31.1 mph N/A   Scattered Clouds
3:54 PM 60.1 °F - 33.1 °F 36% 29.98 in 10.0 mi West 19.6 mph 31.1 mph N/A   Scattered Clouds
4:54 PM 61.0 °F - 35.1 °F 38% 29.98 in 10.0 mi WNW 18.4 mph 28.8 mph N/A   Scattered Clouds
5:54 PM 61.0 °F - 32.0 °F 34% 29.99 in 10.0 mi WNW 21.9 mph 32.2 mph N/A   Scattered Clouds
6:54 PM 60.1 °F - 33.1 °F 36% 29.99 in 10.0 mi WNW 17.3 mph - N/A   Scattered Clouds
7:54 PM 57.9 °F - 34.0 °F 41% 30.00 in 10.0 mi West 13.8 mph - N/A   Scattered Clouds
8:54 PM 55.0 °F - 35.1 °F 47% 30.01 in 10.0 mi WNW 8.1 mph - N/A   Scattered Clouds
9:54 PM 53.1 °F - 35.1 °F 50% 30.04 in 10.0 mi West 8.1 mph - N/A   Scattered Clouds
10:54 PM 51.1 °F - 36.0 °F 56% 30.05 in 10.0 mi West 10.4 mph - N/A   Partly Cloudy
11:54 PM 51.1 °F - 35.1 °F 54% 30.06 in 10.0 mi West 9.2 mph - N/A   Partly Cloudy